Location: Peebles
(55.6412°N, 3.1714°W)
Time: 01:50:48
(UTC+01:00)

deb r/b Ablestar - Pass Details

Date: 05 July 2022
Orbit: 859 x 1154 km, 67.2° (Epoch: 13 August)

Event Time Altitude Azimuth Distance (km) Brightness Sun altitude
Rises 23:22:36 0° 310° (NW) 3,986 ? -7.9°
Reaches altitude 10° 23:25:24 10° 316° (NW) 3,045 ? -8.1°
Maximum altitude 23:32:30 51° 31° (NNE) 1,432 ? -8.5°
Drops below altitude 10° 23:39:35 10° 107° (ESE) 3,034 ? -8.9°
Sets 23:42:21 0° 112° (ESE) 3,970 ? -9.1°
